FENGYUN 1C DEB, 35130

Orbit data source: Space-Track

FENGYUN 1C DEB, 35130 is space debris in SSO originally from a launch on Mon, 10 May 1999 UTC launched from the Taiyaun Space Center, China (TSC). Fengyun 1C debris stems from the Chinese weather satellite Fengyun-1C, which was intentionally destroyed by a Chinese anti-satellite missile in 2007. This event dramatically increased the amount of space debris, with thousands of trackable fragments posing hazards to satellites and human spaceflight. The Fengyun 1C debris cloud has become a focal point in discussions about space sustainability and the need for international regulations to prevent the creation of new debris.

Not visible in the next 10 days
Identifier
35130, 1999-025DLJ
Orbit
SSO
Country
Flag of CNCN / PRC
Related business
Manufacturer
Unknown
Mission
Spacecraft
Bus & Motor
Unknown
Mass
Unknown
Launch date (UTC)
1999-05-10 (27 years ago)
Launch vehicle
Unknown
Launch site
Taiyaun Space Center, China (TSC)
Object type
Payload
Rocket body
Debris
Shape & HBR
Unknown shape, 0.1 m
Radar Cross Section
Small (<0.1 m²)

Expand to show TLE details & history
Last TLE update: 4 months ago

TLE from 4 months ago
0 FENGYUN 1C DEB
1 35130U 99025DLJ 26030.31682944  .00295058  00000-0  14655-1 0  9996
2 35130  99.0301 248.2207 0012739 320.5236  39.5063 15.16203993656455
Epoch: 2026-01-30T07:36Z
TLE epoch observation values (Epoch: 2026-01-30T07:36:14.063Z)
Latitude
-0.00003°
Longitude
4.60519°
Altitude
513.585 km
Speed
7.611 km/s
True Right ascension
16h 32m 52s
True Declination
0° 00' 00"
Sunlit
Object was in daylight at epoch
Visualization orbit readout
Latitude
Unknown
Longitude
Unknown
Altitude
Unknown
Speed
Unknown
Apparent Right ascension
Unknown
Apparent Declination
Unknown
Sunlit
N/A
Visualization observer readout
Local Sidereal Time
19:07:52
Azimuth
Unknown
Elevation
Unknown
Doppler factor
Unknown
Orbital elements
Apogee altitude
523.154 km
Perigee altitude
505.593 km
Semi-major axis
6,892.51 km
Eccentricity
0.00127
Inclination
99.0301°
RAAN
248.2207°
Arg. of periapsis
320.5236°
True anomaly
39.59928°
Mean anomaly
39.5063°
Eccentric anomaly
39.55278°
Mean motion
3.79295 °/min
Orbital period
94.91 mins
BSTAR
0.014655
Loading maneuver chart data...
Computing Atmospheric mass density...

Documentation

Showing up to 5 results
|